Flag for U.S.A. Weather past 2 weeks in Kalamazoo, Michigan, U.S.A.

Now
78 °F

Broken clouds.


Feels Like: 80 °F
Forecast: 67 / 78 °F
Wind: 18 mph from Southwest

Location: Kalamazoo / Battle Creek International Airport

Current Time: May 25, 2015 at 12:40:25 PM

Latest Report: May 25, 2015 at 11:53 AM


Visibility: 10 mi

Pressure: 29.91 "Hg

Humidity: 60%

Dew point: 63 °F

Location of KalamazooLocation

Historic Weather in Kalamazoo — Graph

°F

Kalamazoo temperature yesterday

Maximum temperature yesterday: 77 °F (at 6:53 PM)
Minimum temperature yesterday: 52 °F (at 6:53 AM)
Average temperature yesterday: 68 °F

Past Weeks' High & Low Weather Summary

 TemperatureHumidityPressure
High82 °F (May 18, 1:53 PM)94% (May 11, 7:53 AM)30.47 "Hg (May 11, 7:53 AM)
Low35 °F (May 20, 4:53 AM)20% (May 23, 12:53 PM)29.77 "Hg (May 11, 7:53 PM)
Average60 °F65%30.11 "Hg
* Reported May 10 10:53 AM — May 25 10:53 AM, Kalamazoo, Weather by CustomWeather, © 2015

Note: Actual official high and low records may vary slightly from our data, if they occured in-between our weather recording intervals... More about our weather records

Advertising

Kalamazoo weather history for previous 24 hours

 ConditionsComfort  
Time TempWeatherWind HumidityBarometerVisibility
10:53 AM
Mon, May 25
74 °FMostly cloudy.24 mph69%29.90 "Hg10 mi
9:53 AM74 °FPartly sunny.20 mph69%29.91 "Hg10 mi
8:53 AM72 °FOvercast.12 mph71%29.93 "Hg10 mi
7:53 AM71 °FLight rain. Partly sunny.14 mph71%29.93 "Hg10 mi
6:53 AM70 °FClear.12 mph68%29.93 "Hg10 mi
5:53 AM70 °FClear.13 mph64%29.93 "Hg10 mi
4:53 AM70 °FClear.12 mph64%29.92 "Hg10 mi
3:53 AM70 °FClear.12 mph61%29.94 "Hg10 mi
2:53 AM71 °FClear.13 mph57%29.96 "Hg10 mi
1:53 AM71 °FClear.13 mph57%29.97 "Hg10 mi
12:53 AM72 °FClear.10 mph53%29.99 "Hg10 mi
11:53 PM
Sun, May 24
73 °FPassing clouds.8 mph50%29.99 "Hg10 mi
10:53 PM74 °FClear.7 mph50%30.01 "Hg10 mi
9:53 PM73 °FMostly cloudy.3 mph57%30.01 "Hg10 mi
8:53 PM73 °FOvercast.3 mph57%30.01 "Hg10 mi
7:53 PM75 °FPassing clouds.6 mph52%30.01 "Hg10 mi
6:53 PM77 °FSunny.6 mph48%30.03 "Hg10 mi
5:53 PM76 °FPassing clouds.6 mph50%30.07 "Hg10 mi
4:53 PM76 °FPartly sunny.3 mph50%30.11 "Hg10 mi
3:53 PM75 °FBroken clouds.5 mph52%30.14 "Hg10 mi
2:53 PM74 °FOvercast.5 mph48%30.16 "Hg10 mi
1:53 PM76 °FPartly sunny.7 mph47%30.18 "Hg10 mi
12:53 PM73 °FOvercast.7 mph48%30.19 "Hg10 mi
Weather by CustomWeather, © 2015

See weather overviewHow to use our weather pages